Year,Month,Day,Hour,Minute,Value (Times are PST for temperature in C)
2017,11,23,00,00,10.30
2017,11,23,00,01,10.30
2017,11,23,00,02,10.30
2017,11,23,00,03,10.30
2017,11,23,00,04,10.30
2017,11,23,00,05,10.20
2017,11,23,00,06,10.20
2017,11,23,00,07,10.20
2017,11,23,00,08,10.20
2017,11,23,00,09,10.20
2017,11,23,00,10,10.20
2017,11,23,00,11,10.20
2017,11,23,00,12,10.10
2017,11,23,00,13,10.10
2017,11,23,00,14,10.10
2017,11,23,00,15,10.10
2017,11,23,00,16,10.10
2017,11,23,00,17,10.10
2017,11,23,00,18,10.10
2017,11,23,00,19,10.10
2017,11,23,00,20,10.10
2017,11,23,00,21,10.10
2017,11,23,00,22,10.20
2017,11,23,00,23,10.10
2017,11,23,00,24,10.10
2017,11,23,00,25,10.10
2017,11,23,00,26,10.10
2017,11,23,00,27,10.10
2017,11,23,00,28,10.10
2017,11,23,00,29,10.10
2017,11,23,00,30,10.10
2017,11,23,00,31,10.10
2017,11,23,00,32,10.10
2017,11,23,00,33,10.10
2017,11,23,00,34,10.10
2017,11,23,00,35,10.00
2017,11,23,00,36,10.10
2017,11,23,00,37,10.10
2017,11,23,00,38,10.10
2017,11,23,00,39,10.10
2017,11,23,00,40,10.10
2017,11,23,00,41,10.20
2017,11,23,00,42,10.20
2017,11,23,00,43,10.20
2017,11,23,00,44,10.20
2017,11,23,00,45,10.20
2017,11,23,00,46,10.30
2017,11,23,00,47,10.30
2017,11,23,00,48,10.30
2017,11,23,00,49,10.30
2017,11,23,00,50,10.30
2017,11,23,00,51,10.30
2017,11,23,00,52,10.30
2017,11,23,00,53,10.30
2017,11,23,00,54,10.30
2017,11,23,00,55,10.20
2017,11,23,00,56,10.20
2017,11,23,00,57,10.20
2017,11,23,00,58,10.20
2017,11,23,00,59,10.20
2017,11,23,01,00,10.20
2017,11,23,01,01,10.20
2017,11,23,01,02,10.20
2017,11,23,01,03,10.20
2017,11,23,01,04,10.10
2017,11,23,01,05,10.10
2017,11,23,01,06,10.10
2017,11,23,01,07,10.10
2017,11,23,01,08,10.10
2017,11,23,01,09,10.10
2017,11,23,01,10,10.10
2017,11,23,01,11,10.10
2017,11,23,01,12,10.10
2017,11,23,01,13,10.00
2017,11,23,01,14,10.00
2017,11,23,01,15,10.00
2017,11,23,01,16,10.00
2017,11,23,01,17,9.90
2017,11,23,01,18,9.90
2017,11,23,01,19,9.90
2017,11,23,01,20,9.90
2017,11,23,01,21,9.90
2017,11,23,01,22,9.90
2017,11,23,01,23,9.90
2017,11,23,01,24,9.90
2017,11,23,01,25,10.00
2017,11,23,01,26,10.00
2017,11,23,01,27,10.00
2017,11,23,01,28,10.00
2017,11,23,01,29,10.00
2017,11,23,01,30,10.00
2017,11,23,01,31,10.00
2017,11,23,01,32,10.10
2017,11,23,01,33,10.10
2017,11,23,01,34,10.10
2017,11,23,01,35,10.10
2017,11,23,01,36,10.10
2017,11,23,01,37,10.10
2017,11,23,01,38,10.10
2017,11,23,01,39,10.10
2017,11,23,01,40,10.00
2017,11,23,01,41,10.10
2017,11,23,01,42,10.10
2017,11,23,01,43,10.10
2017,11,23,01,44,10.10
2017,11,23,01,45,10.10
2017,11,23,01,46,10.10
2017,11,23,01,47,10.10
2017,11,23,01,48,10.10
2017,11,23,01,49,10.00
2017,11,23,01,50,10.00
2017,11,23,01,51,10.00
2017,11,23,01,52,10.00
2017,11,23,01,53,10.00
2017,11,23,01,54,10.00
2017,11,23,01,55,10.10
2017,11,23,01,56,10.10
2017,11,23,01,57,10.10
2017,11,23,01,58,10.10
2017,11,23,01,59,10.10
2017,11,23,02,00,10.10
2017,11,23,02,01,10.10
2017,11,23,02,02,10.10
2017,11,23,02,03,10.10
2017,11,23,02,04,10.10
2017,11,23,02,05,10.00
2017,11,23,02,06,10.00
2017,11,23,02,07,10.00
2017,11,23,02,08,10.00
2017,11,23,02,09,10.00
2017,11,23,02,10,10.00
2017,11,23,02,11,10.00
2017,11,23,02,12,10.00
2017,11,23,02,13,10.00
2017,11,23,02,14,10.00
2017,11,23,02,15,9.90
2017,11,23,02,16,9.90
2017,11,23,02,17,9.90
2017,11,23,02,18,9.90
2017,11,23,02,19,9.90
2017,11,23,02,20,9.90
2017,11,23,02,21,9.90
2017,11,23,02,22,9.90
2017,11,23,02,23,9.90
2017,11,23,02,24,9.90
2017,11,23,02,25,9.90
2017,11,23,02,26,9.90
2017,11,23,02,27,9.90
2017,11,23,02,28,9.90
2017,11,23,02,29,9.90
2017,11,23,02,30,9.90
2017,11,23,02,31,9.90
2017,11,23,02,32,9.90
2017,11,23,02,33,9.90
2017,11,23,02,34,9.90
2017,11,23,02,35,9.90
2017,11,23,02,36,9.90
2017,11,23,02,37,9.90
2017,11,23,02,38,9.90
2017,11,23,02,39,9.80
2017,11,23,02,40,9.80
2017,11,23,02,41,9.80
2017,11,23,02,42,9.80
2017,11,23,02,43,9.80
2017,11,23,02,44,9.80
2017,11,23,02,45,9.80
2017,11,23,02,46,9.80
2017,11,23,02,47,9.80
2017,11,23,02,48,9.80
2017,11,23,02,49,9.80
2017,11,23,02,50,9.80
2017,11,23,02,51,9.80
2017,11,23,02,52,9.80
2017,11,23,02,53,9.80
2017,11,23,02,54,9.80
2017,11,23,02,55,9.80
2017,11,23,02,56,9.80
2017,11,23,02,57,9.80
2017,11,23,02,58,9.80
2017,11,23,02,59,9.80
2017,11,23,03,00,9.80
2017,11,23,03,01,9.80
2017,11,23,03,02,9.80
2017,11,23,03,03,9.80
2017,11,23,03,04,9.80
2017,11,23,03,05,9.80
2017,11,23,03,06,9.80
2017,11,23,03,07,9.70
2017,11,23,03,08,9.80
2017,11,23,03,09,9.70
2017,11,23,03,10,9.70
2017,11,23,03,11,9.70
2017,11,23,03,12,9.70
2017,11,23,03,13,9.70
2017,11,23,03,14,9.70
2017,11,23,03,15,9.70
2017,11,23,03,16,9.70
2017,11,23,03,17,9.70
2017,11,23,03,18,9.70
2017,11,23,03,19,9.70
2017,11,23,03,20,9.70
2017,11,23,03,21,9.70
2017,11,23,03,22,9.70
2017,11,23,03,23,9.70
2017,11,23,03,24,9.70
2017,11,23,03,25,9.70
2017,11,23,03,26,9.60
2017,11,23,03,27,9.60
2017,11,23,03,28,9.60
2017,11,23,03,29,9.60
2017,11,23,03,30,9.70
2017,11,23,03,31,9.60
2017,11,23,03,32,9.60
2017,11,23,03,33,9.60
2017,11,23,03,34,9.60
2017,11,23,03,35,9.60
2017,11,23,03,36,9.60
2017,11,23,03,37,9.60
2017,11,23,03,38,9.60
2017,11,23,03,39,9.60
2017,11,23,03,40,9.60
2017,11,23,03,41,9.60
2017,11,23,03,42,9.60
2017,11,23,03,43,9.60
2017,11,23,03,44,9.60
2017,11,23,03,45,9.60
2017,11,23,03,46,9.60
2017,11,23,03,47,9.60
2017,11,23,03,48,9.60
2017,11,23,03,49,9.60
2017,11,23,03,50,9.60
2017,11,23,03,51,9.60
2017,11,23,03,52,9.60
2017,11,23,03,53,9.60
2017,11,23,03,54,9.60
2017,11,23,03,55,9.60
2017,11,23,03,56,9.60
2017,11,23,03,57,9.60
2017,11,23,03,58,9.60
2017,11,23,03,59,9.60
2017,11,23,04,00,9.60
2017,11,23,04,01,9.60
2017,11,23,04,02,9.60
2017,11,23,04,03,9.50
2017,11,23,04,04,9.50
2017,11,23,04,05,9.50
2017,11,23,04,06,9.50
2017,11,23,04,07,9.50
2017,11,23,04,08,9.50
2017,11,23,04,09,9.50
2017,11,23,04,10,9.50
2017,11,23,04,11,9.50
2017,11,23,04,12,9.50
2017,11,23,04,13,9.40
2017,11,23,04,14,9.50
2017,11,23,04,15,9.40
2017,11,23,04,16,9.40
2017,11,23,04,17,9.40
2017,11,23,04,18,9.40
2017,11,23,04,19,9.40
2017,11,23,04,20,9.40
2017,11,23,04,21,9.40
2017,11,23,04,22,9.40
2017,11,23,04,23,9.40
2017,11,23,04,24,9.40
2017,11,23,04,25,9.40
2017,11,23,04,26,9.40
2017,11,23,04,27,9.40
2017,11,23,04,28,9.40
2017,11,23,04,29,9.40
2017,11,23,04,30,9.40
2017,11,23,04,31,9.40
2017,11,23,04,32,9.40
2017,11,23,04,33,9.40
2017,11,23,04,34,9.40
2017,11,23,04,35,9.40
2017,11,23,04,36,9.40
2017,11,23,04,37,9.40
2017,11,23,04,38,9.40
2017,11,23,04,39,9.40
2017,11,23,04,40,9.40
2017,11,23,04,41,9.40
2017,11,23,04,42,9.40
2017,11,23,04,43,9.40
2017,11,23,04,44,9.40
2017,11,23,04,45,9.30
2017,11,23,04,46,9.30
2017,11,23,04,47,9.30
2017,11,23,04,48,9.30
2017,11,23,04,49,9.30
2017,11,23,04,50,9.30
2017,11,23,04,51,9.30
2017,11,23,04,52,9.30
2017,11,23,04,53,9.30
2017,11,23,04,54,9.30
2017,11,23,04,55,9.30
2017,11,23,04,56,9.30
2017,11,23,04,57,9.30
2017,11,23,04,58,9.20
2017,11,23,04,59,9.20
2017,11,23,05,00,9.20
2017,11,23,05,01,9.20
2017,11,23,05,02,9.20
2017,11,23,05,03,9.20
2017,11,23,05,04,9.20
2017,11,23,05,05,9.20
2017,11,23,05,06,9.20
2017,11,23,05,07,9.10
2017,11,23,05,08,9.10
2017,11,23,05,09,9.10
2017,11,23,05,10,9.10
2017,11,23,05,11,9.10
2017,11,23,05,12,9.10
2017,11,23,05,13,9.10
2017,11,23,05,14,9.10
2017,11,23,05,15,9.10
2017,11,23,05,16,9.00
2017,11,23,05,17,9.00
2017,11,23,05,18,9.00
2017,11,23,05,19,9.00
2017,11,23,05,20,9.00
2017,11,23,05,21,9.00
2017,11,23,05,22,9.00
2017,11,23,05,23,8.90
2017,11,23,05,24,8.90
2017,11,23,05,25,8.90
2017,11,23,05,26,8.90
2017,11,23,05,27,8.90
2017,11,23,05,28,8.90
2017,11,23,05,29,8.90
2017,11,23,05,30,8.90
2017,11,23,05,31,8.90
2017,11,23,05,32,8.90
2017,11,23,05,33,8.90
2017,11,23,05,34,8.80
2017,11,23,05,35,8.80
2017,11,23,05,36,8.80
2017,11,23,05,37,8.80
2017,11,23,05,38,8.80
2017,11,23,05,39,8.80
2017,11,23,05,40,8.80
2017,11,23,05,41,8.80
2017,11,23,05,42,8.80
2017,11,23,05,43,8.80
2017,11,23,05,44,8.80
2017,11,23,05,45,8.80
2017,11,23,05,46,8.80
2017,11,23,05,47,8.80
2017,11,23,05,48,8.80
2017,11,23,05,49,8.80
2017,11,23,05,50,8.80
2017,11,23,05,51,8.80
2017,11,23,05,52,8.80
2017,11,23,05,53,8.80
2017,11,23,05,54,8.80
2017,11,23,05,55,8.70
2017,11,23,05,56,8.70
2017,11,23,05,57,8.70
2017,11,23,05,58,8.70
2017,11,23,05,59,8.70
2017,11,23,06,00,8.70
2017,11,23,06,01,8.70
2017,11,23,06,02,8.70
2017,11,23,06,03,8.70
2017,11,23,06,04,8.60
2017,11,23,06,05,8.60
2017,11,23,06,06,8.60
2017,11,23,06,07,8.60
2017,11,23,06,08,8.60
2017,11,23,06,09,8.60
2017,11,23,06,10,8.60
2017,11,23,06,11,8.60
2017,11,23,06,12,8.60
2017,11,23,06,13,8.60
2017,11,23,06,14,8.60
2017,11,23,06,15,8.50
2017,11,23,06,16,8.50
2017,11,23,06,17,8.50
2017,11,23,06,18,8.50
2017,11,23,06,19,8.50
2017,11,23,06,20,8.40
2017,11,23,06,21,8.40
2017,11,23,06,22,8.40
2017,11,23,06,23,8.40
2017,11,23,06,24,8.40
2017,11,23,06,25,8.40
2017,11,23,06,26,8.40
2017,11,23,06,27,8.40
2017,11,23,06,28,8.40
2017,11,23,06,29,8.40
2017,11,23,06,30,8.30
2017,11,23,06,31,8.30
2017,11,23,06,32,8.30
2017,11,23,06,33,8.30
2017,11,23,06,34,8.30
2017,11,23,06,35,8.30
2017,11,23,06,36,8.30
2017,11,23,06,37,8.30
2017,11,23,06,38,8.30
2017,11,23,06,39,8.30
2017,11,23,06,40,8.30
2017,11,23,06,41,8.30
2017,11,23,06,42,8.30
2017,11,23,06,43,8.30
2017,11,23,06,44,8.30
2017,11,23,06,45,8.30
2017,11,23,06,46,8.30
2017,11,23,06,47,8.30
2017,11,23,06,48,8.30
2017,11,23,06,49,8.40
2017,11,23,06,50,8.40
2017,11,23,06,51,8.40
2017,11,23,06,52,8.40
2017,11,23,06,53,8.50
2017,11,23,06,54,8.50
2017,11,23,06,55,8.50
2017,11,23,06,56,8.50
2017,11,23,06,57,8.50
2017,11,23,06,58,8.60
2017,11,23,06,59,8.60
2017,11,23,07,00,8.60
2017,11,23,07,01,8.60
2017,11,23,07,02,8.60
2017,11,23,07,03,8.70
2017,11,23,07,04,8.70
2017,11,23,07,05,8.70
2017,11,23,07,06,8.80
2017,11,23,07,07,8.80
2017,11,23,07,08,8.80
2017,11,23,07,09,8.90
2017,11,23,07,10,8.90
2017,11,23,07,11,9.00
2017,11,23,07,12,9.10
2017,11,23,07,13,9.20
2017,11,23,07,14,9.30
2017,11,23,07,15,9.30
2017,11,23,07,16,9.30
2017,11,23,07,17,9.40
2017,11,23,07,18,9.40
2017,11,23,07,19,9.40
2017,11,23,07,20,9.40
2017,11,23,07,21,9.40
2017,11,23,07,22,9.40
2017,11,23,07,23,9.50
2017,11,23,07,24,9.60
2017,11,23,07,25,9.60
2017,11,23,07,26,9.70
2017,11,23,07,27,9.70
2017,11,23,07,28,9.80
2017,11,23,07,29,9.90
2017,11,23,07,30,9.90
2017,11,23,07,31,10.00
2017,11,23,07,32,10.10
2017,11,23,07,33,10.10
2017,11,23,07,34,10.20
2017,11,23,07,35,10.20
2017,11,23,07,36,10.20
2017,11,23,07,37,10.20
2017,11,23,07,38,10.20
2017,11,23,07,39,10.20
2017,11,23,07,40,10.20
2017,11,23,07,41,10.20
2017,11,23,07,42,10.20
2017,11,23,07,43,10.20
2017,11,23,07,44,10.20
2017,11,23,07,45,10.20
2017,11,23,07,46,10.20
2017,11,23,07,47,10.20
2017,11,23,07,48,10.20
2017,11,23,07,49,10.10
2017,11,23,07,50,10.00
2017,11,23,07,51,10.00
2017,11,23,07,52,9.90
2017,11,23,07,53,9.80
2017,11,23,07,54,9.80
2017,11,23,07,55,9.70
2017,11,23,07,56,9.60
2017,11,23,07,57,9.60
2017,11,23,07,58,9.50
2017,11,23,07,59,9.50
2017,11,23,08,00,9.40
2017,11,23,08,01,9.40
2017,11,23,08,02,9.40
2017,11,23,08,03,9.30
2017,11,23,08,04,9.30
2017,11,23,08,05,9.30
2017,11,23,08,06,9.30
2017,11,23,08,07,9.30
2017,11,23,08,08,9.20
2017,11,23,08,09,9.20
2017,11,23,08,10,9.20
2017,11,23,08,11,9.20
2017,11,23,08,12,9.20
2017,11,23,08,13,9.10
2017,11,23,08,14,9.10
2017,11,23,08,15,9.10
2017,11,23,08,16,9.10
2017,11,23,08,17,9.00
2017,11,23,08,18,9.00
2017,11,23,08,19,9.00
2017,11,23,08,20,8.90
2017,11,23,08,21,8.90
2017,11,23,08,22,8.90
2017,11,23,08,23,8.90
2017,11,23,08,24,8.90
2017,11,23,08,25,8.80
2017,11,23,08,26,8.80
2017,11,23,08,27,8.80
2017,11,23,08,28,8.80
2017,11,23,08,29,8.80
2017,11,23,08,30,8.80
2017,11,23,08,31,8.80
2017,11,23,08,32,8.80
2017,11,23,08,33,8.80
2017,11,23,08,34,8.80
2017,11,23,08,35,8.70
2017,11,23,08,36,8.70
2017,11,23,08,37,8.70
2017,11,23,08,38,8.70
2017,11,23,08,39,8.70
2017,11,23,08,40,8.70
2017,11,23,08,41,8.70
2017,11,23,08,42,8.70
2017,11,23,08,43,8.70
2017,11,23,08,44,8.70
2017,11,23,08,45,8.70
2017,11,23,08,46,8.70
2017,11,23,08,47,8.70
2017,11,23,08,48,8.70
2017,11,23,08,49,8.70
2017,11,23,08,50,8.70
2017,11,23,08,51,8.70
2017,11,23,08,52,8.70
2017,11,23,08,53,8.70
2017,11,23,08,54,8.70
2017,11,23,08,55,8.70
2017,11,23,08,56,8.70
2017,11,23,08,57,8.70
2017,11,23,08,58,8.70
2017,11,23,08,59,8.70
2017,11,23,09,00,8.70
2017,11,23,09,01,8.70
2017,11,23,09,02,8.80
2017,11,23,09,03,8.80
2017,11,23,09,04,8.80
2017,11,23,09,05,8.80
2017,11,23,09,06,8.80
2017,11,23,09,07,8.90
2017,11,23,09,08,8.90
2017,11,23,09,09,8.90
2017,11,23,09,10,8.90
2017,11,23,09,11,8.90
2017,11,23,09,12,9.00
2017,11,23,09,13,9.00
2017,11,23,09,14,9.10
2017,11,23,09,15,9.10
2017,11,23,09,16,9.20
2017,11,23,09,17,9.20
2017,11,23,09,18,9.20
2017,11,23,09,19,9.30
2017,11,23,09,20,9.30
2017,11,23,09,21,9.40
2017,11,23,09,22,9.40
2017,11,23,09,23,9.40
2017,11,23,09,24,9.50
2017,11,23,09,25,9.50
2017,11,23,09,26,9.60
2017,11,23,09,27,9.80
2017,11,23,09,28,9.90
2017,11,23,09,29,10.10
2017,11,23,09,30,10.20
2017,11,23,09,31,10.30
2017,11,23,09,32,10.40
2017,11,23,09,33,10.40
2017,11,23,09,34,10.50
2017,11,23,09,35,10.60
2017,11,23,09,36,10.60
2017,11,23,09,37,10.70
2017,11,23,09,38,10.70
2017,11,23,09,39,10.70
2017,11,23,09,40,10.70
2017,11,23,09,41,10.70
2017,11,23,09,42,10.70
2017,11,23,09,43,10.70
2017,11,23,09,44,10.70
2017,11,23,09,45,10.70
2017,11,23,09,46,10.70
2017,11,23,09,47,10.70
2017,11,23,09,48,10.70
2017,11,23,09,49,10.70
2017,11,23,09,50,10.70
2017,11,23,09,51,10.70
2017,11,23,09,52,10.70
2017,11,23,09,53,10.70
2017,11,23,09,54,10.70
2017,11,23,09,55,10.70
2017,11,23,09,56,10.70
2017,11,23,09,57,10.70
2017,11,23,09,58,10.70
2017,11,23,09,59,10.70
2017,11,23,10,00,10.70
2017,11,23,10,01,10.70
2017,11,23,10,02,10.70
2017,11,23,10,03,10.60
2017,11,23,10,04,10.60
2017,11,23,10,05,10.60
2017,11,23,10,06,10.60
2017,11,23,10,07,10.60
2017,11,23,10,08,10.60
2017,11,23,10,09,10.50
2017,11,23,10,10,10.50
2017,11,23,10,11,10.40
2017,11,23,10,12,10.40
2017,11,23,10,13,10.40
2017,11,23,10,14,10.40
2017,11,23,10,15,10.30
2017,11,23,10,16,10.30
2017,11,23,10,17,10.30
2017,11,23,10,18,10.30
2017,11,23,10,19,10.30
2017,11,23,10,20,10.30
2017,11,23,10,21,10.30
2017,11,23,10,22,10.30
2017,11,23,10,23,10.30
2017,11,23,10,24,10.30
2017,11,23,10,25,10.40
2017,11,23,10,26,10.50
2017,11,23,10,27,10.60
2017,11,23,10,28,10.60
2017,11,23,10,29,10.70
2017,11,23,10,30,10.70
2017,11,23,10,31,10.70
2017,11,23,10,32,10.70
2017,11,23,10,33,10.80
2017,11,23,10,34,10.80
2017,11,23,10,35,10.80
2017,11,23,10,36,10.80
2017,11,23,10,37,10.80
2017,11,23,10,38,10.80
2017,11,23,10,39,10.80
2017,11,23,10,40,10.80
2017,11,23,10,41,10.80
2017,11,23,10,42,10.80
2017,11,23,10,43,10.80
2017,11,23,10,44,10.80
2017,11,23,10,45,10.80
2017,11,23,10,46,10.90
2017,11,23,10,47,10.90
2017,11,23,10,48,11.00
2017,11,23,10,49,11.10
2017,11,23,10,50,11.10
2017,11,23,10,51,11.10
2017,11,23,10,52,11.10
2017,11,23,10,53,11.20
2017,11,23,10,54,11.20
2017,11,23,10,55,11.20
2017,11,23,10,56,11.20
2017,11,23,10,57,11.20
2017,11,23,10,58,11.30
2017,11,23,10,59,11.20
2017,11,23,11,00,11.20
2017,11,23,11,01,11.30
2017,11,23,11,02,11.30
2017,11,23,11,03,11.30
2017,11,23,11,04,11.30
2017,11,23,11,05,11.20
2017,11,23,11,06,11.20
2017,11,23,11,07,11.20
2017,11,23,11,08,11.20
2017,11,23,11,09,11.20
2017,11,23,11,10,11.20
2017,11,23,11,11,11.20
2017,11,23,11,12,11.20
2017,11,23,11,13,11.20
2017,11,23,11,14,11.20
2017,11,23,11,15,11.10
2017,11,23,11,16,11.10
2017,11,23,11,17,11.20
2017,11,23,11,18,11.10
2017,11,23,11,19,11.10
2017,11,23,11,20,11.10
2017,11,23,11,21,11.10
2017,11,23,11,22,11.00
2017,11,23,11,23,11.00
2017,11,23,11,24,11.00
2017,11,23,11,25,10.90
2017,11,23,11,26,10.90
2017,11,23,11,27,10.90
2017,11,23,11,28,10.90
2017,11,23,11,29,10.80
2017,11,23,11,30,10.80
2017,11,23,11,31,10.80
2017,11,23,11,32,10.80
2017,11,23,11,33,10.70
2017,11,23,11,34,10.70
2017,11,23,11,35,10.70
2017,11,23,11,36,10.60
2017,11,23,11,37,10.60
2017,11,23,11,38,10.60
2017,11,23,11,39,10.60
2017,11,23,11,40,10.50
2017,11,23,11,41,10.50
2017,11,23,11,42,10.50
2017,11,23,11,43,10.40
2017,11,23,11,44,10.40
2017,11,23,11,45,10.40
2017,11,23,11,46,10.40
2017,11,23,11,47,10.40
2017,11,23,11,48,10.40
2017,11,23,11,49,10.40
2017,11,23,11,50,10.40
2017,11,23,11,51,10.40
2017,11,23,11,52,10.50
2017,11,23,11,53,10.50
2017,11,23,11,54,10.50
2017,11,23,11,55,10.50
2017,11,23,11,56,10.50
2017,11,23,11,57,10.60
2017,11,23,11,58,10.60
2017,11,23,11,59,10.70
2017,11,23,12,00,10.70
2017,11,23,12,01,10.80
2017,11,23,12,02,10.80
2017,11,23,12,03,10.90
2017,11,23,12,04,10.90
2017,11,23,12,05,11.00
2017,11,23,12,06,11.10
2017,11,23,12,07,11.20
2017,11,23,12,08,11.20
2017,11,23,12,09,11.20
2017,11,23,12,10,11.20
2017,11,23,12,11,11.30
2017,11,23,12,12,11.30
2017,11,23,12,13,11.30
2017,11,23,12,14,11.40
2017,11,23,12,15,11.40
2017,11,23,12,16,11.40
2017,11,23,12,17,11.40
2017,11,23,12,18,11.40
2017,11,23,12,19,11.40
2017,11,23,12,20,11.40
2017,11,23,12,21,11.40
2017,11,23,12,22,11.50
2017,11,23,12,23,11.50
2017,11,23,12,24,11.60
2017,11,23,12,25,11.60
2017,11,23,12,26,11.60
2017,11,23,12,27,11.50
2017,11,23,12,28,11.50
2017,11,23,12,29,11.40
2017,11,23,12,30,11.40
2017,11,23,12,31,11.40
2017,11,23,12,32,11.40
2017,11,23,12,33,11.40
2017,11,23,12,34,11.40
2017,11,23,12,35,11.30
2017,11,23,12,36,11.30
2017,11,23,12,37,11.30
2017,11,23,12,38,11.30
2017,11,23,12,39,11.30
2017,11,23,12,40,11.30
2017,11,23,12,41,11.40
2017,11,23,12,42,11.40
2017,11,23,12,43,11.40
2017,11,23,12,44,11.40
2017,11,23,12,45,11.40
2017,11,23,12,46,11.50
2017,11,23,12,47,11.50
2017,11,23,12,48,11.50
2017,11,23,12,49,11.50
2017,11,23,12,50,11.60
2017,11,23,12,51,11.60
2017,11,23,12,52,11.60
2017,11,23,12,53,11.60
2017,11,23,12,54,11.60
2017,11,23,12,55,11.70
2017,11,23,12,56,11.70
2017,11,23,12,57,11.70
2017,11,23,12,58,11.70
2017,11,23,12,59,11.70
2017,11,23,13,00,11.70
2017,11,23,13,01,11.70
2017,11,23,13,02,11.70
2017,11,23,13,03,11.70
2017,11,23,13,04,11.80
2017,11,23,13,05,11.70
2017,11,23,13,06,11.70
2017,11,23,13,07,11.70
2017,11,23,13,08,11.70
2017,11,23,13,09,11.70
2017,11,23,13,10,11.70
2017,11,23,13,11,11.70
2017,11,23,13,12,11.70
2017,11,23,13,13,11.80
2017,11,23,13,14,11.80
2017,11,23,13,15,11.80
2017,11,23,13,16,11.70
2017,11,23,13,17,11.70
2017,11,23,13,18,11.70
2017,11,23,13,19,11.80
2017,11,23,13,20,11.80
2017,11,23,13,21,11.80
2017,11,23,13,22,11.70
2017,11,23,13,23,11.80
2017,11,23,13,24,11.80
2017,11,23,13,25,11.80
2017,11,23,13,26,11.80
2017,11,23,13,27,11.80
2017,11,23,13,28,11.80
2017,11,23,13,29,11.80
2017,11,23,13,30,11.80
2017,11,23,13,31,11.80
2017,11,23,13,32,11.80
2017,11,23,13,33,11.80
2017,11,23,13,34,11.80
2017,11,23,13,35,11.80
2017,11,23,13,36,11.80
2017,11,23,13,37,11.80
2017,11,23,13,38,11.80
2017,11,23,13,39,11.80
2017,11,23,13,40,11.80
2017,11,23,13,41,11.80
2017,11,23,13,42,11.80
2017,11,23,13,43,11.80
2017,11,23,13,44,11.80
2017,11,23,13,45,11.90
2017,11,23,13,46,11.90
2017,11,23,13,47,12.00
2017,11,23,13,48,12.00
2017,11,23,13,49,12.10
2017,11,23,13,50,12.10
2017,11,23,13,51,12.10
2017,11,23,13,52,12.10
2017,11,23,13,53,12.10
2017,11,23,13,54,12.10
2017,11,23,13,55,12.10
2017,11,23,13,56,12.10
2017,11,23,13,57,12.10
2017,11,23,13,58,12.10
2017,11,23,13,59,12.10
2017,11,23,14,00,12.10
2017,11,23,14,01,12.10
2017,11,23,14,02,12.20
2017,11,23,14,03,12.30
2017,11,23,14,04,12.30
2017,11,23,14,05,12.40
2017,11,23,14,06,12.50
2017,11,23,14,07,12.50
2017,11,23,14,08,12.60
2017,11,23,14,09,12.60
2017,11,23,14,10,12.70
2017,11,23,14,11,12.70
2017,11,23,14,12,12.80
2017,11,23,14,13,12.80
2017,11,23,14,14,12.80
2017,11,23,14,15,12.90
2017,11,23,14,16,12.90
2017,11,23,14,17,12.90
2017,11,23,14,18,12.90
2017,11,23,14,19,13.00
2017,11,23,14,20,13.00
2017,11,23,14,21,13.00
2017,11,23,14,22,13.00
2017,11,23,14,23,13.10
2017,11,23,14,24,13.10
2017,11,23,14,25,13.10
2017,11,23,14,26,13.10
2017,11,23,14,27,13.10
2017,11,23,14,28,13.10
2017,11,23,14,29,13.10
2017,11,23,14,30,13.00
2017,11,23,14,31,13.00
2017,11,23,14,32,13.00
2017,11,23,14,33,12.90
2017,11,23,14,34,12.90
2017,11,23,14,35,12.90
2017,11,23,14,36,12.90
2017,11,23,14,37,12.80
2017,11,23,14,38,12.80
2017,11,23,14,39,12.80
2017,11,23,14,40,12.80
2017,11,23,14,41,12.80
2017,11,23,14,42,12.70
2017,11,23,14,43,12.70
2017,11,23,14,44,12.70
2017,11,23,14,45,12.60
2017,11,23,14,46,12.60
2017,11,23,14,47,12.60
2017,11,23,14,48,12.50
2017,11,23,14,49,12.50
2017,11,23,14,50,12.40
2017,11,23,14,51,12.40
2017,11,23,14,52,12.40
2017,11,23,14,53,12.30
2017,11,23,14,54,12.30
2017,11,23,14,55,12.30
2017,11,23,14,56,12.20
2017,11,23,14,57,12.20
2017,11,23,14,58,12.20
2017,11,23,14,59,12.20
2017,11,23,15,00,12.20
2017,11,23,15,01,12.10
2017,11,23,15,02,12.10
2017,11,23,15,03,12.10
2017,11,23,15,04,12.10
2017,11,23,15,05,12.10
2017,11,23,15,06,12.10
2017,11,23,15,07,12.00
2017,11,23,15,08,12.00
2017,11,23,15,09,12.00
2017,11,23,15,10,11.90
2017,11,23,15,11,11.90
2017,11,23,15,12,11.80
2017,11,23,15,13,11.80
2017,11,23,15,14,11.80
2017,11,23,15,15,11.70
2017,11,23,15,16,11.70
2017,11,23,15,17,11.60
2017,11,23,15,18,11.60
2017,11,23,15,19,11.60
2017,11,23,15,20,11.50
2017,11,23,15,21,11.50
2017,11,23,15,22,11.40
2017,11,23,15,23,11.40
2017,11,23,15,24,11.30
2017,11,23,15,25,11.30
2017,11,23,15,26,11.30
2017,11,23,15,27,11.20
2017,11,23,15,28,11.20
2017,11,23,15,29,11.20
2017,11,23,15,30,11.20
2017,11,23,15,31,11.10
2017,11,23,15,32,11.10
2017,11,23,15,33,11.10
2017,11,23,15,34,11.00
2017,11,23,15,35,11.00
2017,11,23,15,36,10.90
2017,11,23,15,37,10.80
2017,11,23,15,38,10.80
2017,11,23,15,39,10.70
2017,11,23,15,40,10.70
2017,11,23,15,41,10.70
2017,11,23,15,42,10.70
2017,11,23,15,43,10.60
2017,11,23,15,44,10.60
2017,11,23,15,45,10.60
2017,11,23,15,46,10.50
2017,11,23,15,47,10.40
2017,11,23,15,48,10.40
2017,11,23,15,49,10.30
2017,11,23,15,50,10.30
2017,11,23,15,51,10.30
2017,11,23,15,52,10.30
2017,11,23,15,53,10.30
2017,11,23,15,54,10.20
2017,11,23,15,55,10.20
2017,11,23,15,56,10.20
2017,11,23,15,57,10.20
2017,11,23,15,58,10.10
2017,11,23,15,59,10.10
2017,11,23,16,00,10.10
2017,11,23,16,01,10.10
2017,11,23,16,02,10.10
2017,11,23,16,03,10.00
2017,11,23,16,04,10.00
2017,11,23,16,05,10.00
2017,11,23,16,06,10.00
2017,11,23,16,07,9.90
2017,11,23,16,08,9.90
2017,11,23,16,09,9.90
2017,11,23,16,10,9.90
2017,11,23,16,11,9.90
2017,11,23,16,12,9.90
2017,11,23,16,13,9.90
2017,11,23,16,14,9.90
2017,11,23,16,15,9.80
2017,11,23,16,16,9.80
2017,11,23,16,17,9.80
2017,11,23,16,18,9.80
2017,11,23,16,19,9.80
2017,11,23,16,20,9.80
2017,11,23,16,21,9.80
2017,11,23,16,22,9.80
2017,11,23,16,23,9.70
2017,11,23,16,24,9.70
2017,11,23,16,25,9.70
2017,11,23,16,26,9.70
2017,11,23,16,27,9.70
2017,11,23,16,28,9.60
2017,11,23,16,29,9.60
2017,11,23,16,30,9.60
2017,11,23,16,31,9.60
2017,11,23,16,32,9.50
2017,11,23,16,33,9.50
2017,11,23,16,34,9.40
2017,11,23,16,35,9.40
2017,11,23,16,36,9.40
2017,11,23,16,37,9.40
2017,11,23,16,38,9.30
2017,11,23,16,39,9.30
2017,11,23,16,40,9.30
2017,11,23,16,41,9.30
2017,11,23,16,42,9.30
2017,11,23,16,43,9.20
2017,11,23,16,44,9.20
2017,11,23,16,45,9.20
2017,11,23,16,46,9.20
2017,11,23,16,47,9.20
2017,11,23,16,48,9.10
2017,11,23,16,49,9.10
2017,11,23,16,50,9.10
2017,11,23,16,51,9.00
2017,11,23,16,52,9.00
2017,11,23,16,53,9.00
2017,11,23,16,54,8.90
2017,11,23,16,55,8.90
2017,11,23,16,56,8.90
2017,11,23,16,57,8.80
2017,11,23,16,58,8.80
2017,11,23,16,59,8.80
2017,11,23,17,00,8.80
2017,11,23,17,01,8.80
2017,11,23,17,02,8.70
2017,11,23,17,03,8.70
2017,11,23,17,04,8.70
2017,11,23,17,05,8.70
2017,11,23,17,06,8.70
2017,11,23,17,07,8.60
2017,11,23,17,08,8.60
2017,11,23,17,09,8.60
2017,11,23,17,10,8.60
2017,11,23,17,11,8.60
2017,11,23,17,12,8.60
2017,11,23,17,13,8.50
2017,11,23,17,14,8.50
2017,11,23,17,15,8.50
2017,11,23,17,16,8.50
2017,11,23,17,17,8.40
2017,11,23,17,18,8.40
2017,11,23,17,19,8.40
2017,11,23,17,20,8.40
2017,11,23,17,21,8.40
2017,11,23,17,22,8.30
2017,11,23,17,23,8.30
2017,11,23,17,24,8.30
2017,11,23,17,25,8.30
2017,11,23,17,26,8.30
2017,11,23,17,27,8.30
2017,11,23,17,28,8.20
2017,11,23,17,29,8.20
2017,11,23,17,30,8.20
2017,11,23,17,31,8.20
2017,11,23,17,32,8.20
2017,11,23,17,33,8.10
2017,11,23,17,34,8.10
2017,11,23,17,35,8.10
2017,11,23,17,36,8.10
2017,11,23,17,37,8.10
2017,11,23,17,38,8.00
2017,11,23,17,39,8.00
2017,11,23,17,40,8.00
2017,11,23,17,41,8.00